Theta_e
327 327 327 327 326 325 324 326 326 326 326 327 326 326 325 324 325 327 329 330 330 329 328 328 329 328 328 328 329 330 329 328 328 327 326 327 328 328 326 325 326 325 324 325 325 326 326 326 327 326 326 326 326 326 326 327 326 326 326 326 326 326 325 324 325 324 322 320 319 318 317 317 316 317 317 316 316 316 317 317 315 314 312 311 310
326 327 327 327 327 325 323 324 325 325 325 326 328 327 324 324 325 327 329 329 329 328 327 328 328 329 329 329 329 329 329 329 328 327 326 326 325 323 322 323 324 324 324 324 324 325 325 325 325 325 325 325 325 325 326 327 326 326 326 326 326 325 324 324 325 324 321 319 317 317 316 315 315 315 315 315 314 314 314 314 313 313 311 310 309
324 326 326 327 328 326 323 321 323 324 325 327 328 327 324 326 329 329 329 329 328 327 328 328 329 329 329 329 329 329 329 328 328 327 325 324 322 321 320 320 322 323 323 323 323 324 324 324 324 324 324 324 325 326 326 326 326 326 326 326 326 325 324 323 324 324 322 319 318 317 317 316 315 315 314 314 312 311 312 311 310 310 309 308 308
323 324 325 326 327 327 325 323 324 325 326 327 327 327 327 328 329 329 328 328 327 327 329 330 329 330 329 329 329 328 328 327 326 326 325 325 323 321 320 320 320 322 323 323 323 324 324 324 324 324 325 325 325 326 326 326 326 326 326 326 326 325 323 322 323 323 323 321 320 319 318 318 317 316 315 314 311 308 308 309 308 307 307 306 305
322 323 324 325 326 327 326 326 327 326 326 327 326 326 327 328 329 329 328 325 325 327 329 328 329 330 329 329 328 327 326 326 325 325 325 325 323 321 321 322 322 323 323 323 324 325 325 325 324 324 324 325 326 326 326 326 326 326 326 326 325 324 323 322 322 322 323 323 323 322 321 320 319 318 317 316 312 307 306 307 306 306 305 305 304
323 323 323 324 325 326 326 327 328 326 326 326 326 326 327 328 329 329 328 325 324 326 328 327 328 328 328 328 327 327 326 325 325 325 324 323 322 321 323 324 323 322 322 323 324 326 325 325 325 325 325 325 326 326 326 326 325 325 325 325 324 323 322 322 322 322 323 323 323 323 323 322 321 320 319 317 314 309 307 306 306 306 306 305 305
322 322 322 323 324 326 327 328 328 328 327 326 327 327 326 327 328 328 328 326 325 326 327 326 327 327 327 327 326 326 326 326 326 325 324 322 321 322 324 323 322 322 322 322 323 325 325 325 325 325 325 325 326 326 326 325 324 324 324 323 322 322 322 322 321 321 321 322 322 322 322 322 321 321 319 318 316 313 310 309 308 308 308 309 309
321 321 322 323 324 325 326 327 328 328 328 327 327 327 327 327 327 327 327 326 325 327 328 326 326 327 326 326 326 326 326 326 326 324 323 321 322 323 323 322 322 322 322 322 322 324 325 325 325 325 326 325 324 325 325 323 322 322 321 321 321 320 320 320 320 320 321 321 321 321 321 321 321 321 320 318 316 315 313 312 311 310 310 310 310
321 321 322 323 323 324 325 326 327 327 328 327 327 327 327 327 326 327 327 326 326 328 328 327 327 326 326 326 326 325 325 324 324 323 321 322 322 322 321 321 322 322 322 322 321 322 325 325 325 325 324 322 321 322 321 321 320 319 319 319 319 319 319 319 319 319 320 320 319 319 319 319 319 319 319 318 317 317 315 315 314 313 312 312 311
320 321 322 323 323 324 324 325 325 326 327 327 327 327 328 328 327 328 328 328 328 328 327 327 326 326 326 326 325 322 322 323 323 322 322 321 321 321 321 321 321 321 322 322 321 323 325 326 324 324 322 320 319 319 319 319 319 319 319 319 319 319 319 319 318 319 319 318 318 318 318 318 318 318 318 317 317 316 316 316 315 314 314 313 313
319 320 321 322 323 324 324 324 324 325 325 326 326 327 327 327 328 328 328 328 328 327 326 326 326 326 325 324 322 321 322 323 323 322 321 321 320 320 320 319 320 321 321 321 321 323 326 325 323 321 320 320 320 320 320 320 320 320 320 319 320 319 319 319 319 319 319 318 318 318 318 318 318 318 317 317 317 316 315 315 315 315 316 316 315
317 318 319 321 322 323 324 324 324 324 325 325 325 325 325 327 328 328 328 328 327 327 326 326 326 325 324 322 322 322 323 323 323 322 321 320 319 319 319 319 320 321 321 321 322 324 325 323 321 320 321 321 321 320 320 320 320 320 320 320 320 320 320 320 319 319 319 319 319 318 318 318 318 318 318 318 317 317 317 317 317 317 318 317 316
317 317 318 320 321 322 323 323 323 324 324 324 324 324 325 326 327 327 327 327 327 326 325 324 324 323 322 322 323 323 323 323 323 322 321 320 319 319 319 319 320 321 321 322 323 324 323 322 320 321 321 320 320 320 320 320 319 319 318 318 317 318 318 318 318 318 318 318 318 318 318 318 318 318 318 318 318 318 318 318 318 318 317 317 317
317 317 318 319 319 320 320 321 321 322 323 323 323 323 324 325 326 327 327 326 326 324 323 322 322 322 322 322 322 322 323 323 322 321 321 320 319 320 320 320 320 321 322 323 323 322 321 321 321 321 320 320 319 319 318 318 316 316 314 314 314 314 315 316 316 317 317 317 317 317 317 317 317 317 318 318 318 318 318 318 317 317 317 317 317
317 317 318 318 319 319 318 318 319 319 320 322 322 323 324 324 324 324 324 325 324 322 321 321 322 323 323 322 322 322 322 322 321 320 321 320 319 320 321 321 321 321 322 323 322 321 321 321 320 319 317 317 316 316 315 314 313 313 313 313 313 313 314 315 316 317 317 318 318 318 318 317 318 318 318 318 318 318 318 317 317 317 317 317 317
318 318 317 318 318 318 318 318 317 317 318 320 321 322 324 324 324 323 324 323 322 321 320 320 320 322 322 322 322 322 321 321 321 320 319 319 319 320 321 321 321 322 322 322 321 321 321 319 316 314 313 313 313 313 313 313 313 313 313 313 313 313 313 315 316 317 317 318 318 318 318 318 318 318 318 317 317 317 317 317 317 316 316 317 317
317 317 317 317 317 317 317 317 317 317 318 319 321 321 322 322 322 321 321 319 319 320 320 317 318 320 321 321 321 321 321 321 321 318 318 318 319 320 321 321 321 322 322 321 321 320 318 314 312 312 312 312 312 312 313 313 313 313 313 313 313 313 314 314 316 316 317 318 318 318 318 318 318 318 317 317 317 317 316 316 316 316 316 316 316
316 316 316 316 317 317 317 317 317 317 317 319 320 320 320 320 319 319 318 316 317 319 319 318 318 319 319 320 320 321 321 320 319 318 318 319 319 320 321 321 321 321 321 321 319 317 315 313 312 312 312 312 312 313 313 312 312 313 313 313 313 314 314 315 316 316 316 317 317 317 316 316 316 316 316 316 315 315 315 315 315 315 315 315 315
315 315 316 316 317 317 317 317 317 317 317 318 319 319 319 319 318 318 317 316 316 318 319 319 319 318 318 318 319 319 320 319 319 319 319 320 320 319 319 319 318 318 318 317 315 314 313 312 313 312 312 312 312 312 312 312 312 313 313 313 314 315 315 315 316 316 315 315 315 315 314 315 314 314 313 313 312 312 313 314 314 313 313 313 313
313 313 314 315 315 316 317 317 316 316 316 316 317 317 317 317 317 317 316 316 317 317 318 318 318 318 318 318 319 319 319 319 319 319 319 319 319 317 316 316 315 314 314 314 313 313 312 312 313 312 312 311 311 311 312 312 313 314 315 315 316 316 316 315 315 315 314 314 313 313 312 312 311 310 310 309 308 308 310 312 313 312 311 312 311
311 312 313 313 314 315 316 316 315 315 315 315 315 315 315 316 316 316 315 315 316 316 316 316 317 317 317 317 318 318 318 317 317 317 317 318 317 316 315 315 314 314 314 313 313 313 313 313 313 313 312 313 314 314 314 315 315 315 315 315 315 315 315 314 313 312 311 310 309 308 306 306 305 305 304 304 304 304 308 310 310 309 309 310 309
308 310 311 312 312 313 314 314 314 314 313 314 314 314 314 314 315 315 314 314 315 315 315 315 315 315 314 314 315 315 315 315 315 315 315 315 315 314 314 314 314 315 314 314 314 314 315 315 315 315 315 315 316 316 315 315 315 315 314 314 314 313 312 311 309 307 305 304 303 302 301 301 300 300 299 300 301 302 305 306 305 306 307 307 306
306 307 308 309 310 311 312 312 313 313 313 313 313 313 313 313 313 313 313 313 313 314 314 313 313 313 313 313 313 314 314 314 313 314 314 314 313 313 313 313 314 314 314 315 316 315 315 315 316 316 316 315 315 315 314 314 313 312 311 310 309 308 306 305 303 301 301 300 299 299 299 298 298 298 297 298 299 301 302 303 303 305 305 305 303
303 304 305 306 307 309 310 311 311 311 311 311 312 311 311 311 311 311 311 311 312 312 312 312 312 312 312 312 312 312 313 313 313 313 313 312 313 313 313 312 312 311 312 313 314 314 314 314 315 316 315 314 313 312 310 309 307 306 305 304 303 302 301 300 299 299 299 298 298 298 298 297 297 297 297 297 299 300 302 302 303 304 303 303 302
299 300 301 302 304 306 307 308 309 309 309 309 309 309 309 309 308 308 308 308 309 309 309 309 310 310 310 310 310 311 311 312 313 313 312 312 312 312 312 312 312 312 312 313 313 314 314 314 314 314 312 310 308 306 305 304 303 302 302 301 300 300 299 299 299 298 298 298 297 297 297 296 296 296 296 297 299 300 301 302 302 302 302 301 301
297 297 297 298 299 301 302 303 305 306 306 307 306 306 306 306 306 307 307 306 306 306 306 305 305 306 306 306 306 307 307 308 309 309 310 310 310 310 310 310 310 311 311 311 312 312 311 310 309 308 306 305 303 302 301 301 301 300 300 300 299 299 299 299 298 298 297 296 296 296 296 296 296 296 296 296 297 298 298 299 300 300 300 300 299
298 297 296 296 296 297 298 299 300 301 302 302 303 302 302 302 302 303 304 305 306 306 304 302 300 301 302 302 303 303 303 303 304 305 306 307 307 307 307 306 306 306 307 307 307 307 306 305 304 303 302 301 301 301 301 300 300 300 300 300 300 300 300 299 298 297 296 296 296 295 295 296 296 296 296 297 297 297 297 298 299 299 299 300 300
298 297 297 296 296 295 296 296 296 297 297 298 298 298 298 298 298 298 298 300 302 303 303 302 301 299 298 298 299 300 301 301 299 299 300 302 304 306 306 305 305 304 303 302 302 301 301 300 300 300 300 300 301 301 301 301 301 301 301 301 301 301 300 299 297 296 296 296 296 296 296 296 297 297 297 298 298 298 298 299 299 299 299 299 299
297 297 297 297 297 296 296 295 295 295 295 296 296 296 296 296 296 296 296 296 297 297 298 299 300 300 299 297 296 296 298 298 297 296 296 297 298 300 301 301 302 301 300 298 297 298 298 298 299 299 300 301 302 302 302 302 302 302 302 301 301 301 300 299 297 296 296 296 296 296 296 297 297 297 298 298 299 298 298 298 298 298 298 298 298
297 297 297 297 296 296 295 295 295 295 295 295 295 295 295 295 295 295 295 295 295 295 295 296 296 297 298 298 296 295 295 296 295 295 295 295 295 296 296 297 298 298 298 297 296 297 299 300 301 301 302 302 302 302 302 302 302 302 301 301 301 301 300 298 297 297 296 296 296 296 297 297 297 298 298 297 297 297 297 296 297 297 297 298 298
297 297 297 297 296 296 295 295 295 295 295 295 295 295 295 295 294 294 294 294 294 294 295 295 295 295 295 296 296 296 295 295 294 295 295 296 297 297 298 298 299 299 298 298 298 299 300 301 301 302 302 302 302 302 302 302 302 302 301 301 301 300 298 297 297 297 297 296 296 296 296 297 297 297 297 296 296 296 296 296 296 297 297 297 297
296 297 297 297 296 296 295 295 295 295 295 295 295 295 294 294 294 294 294 294 294 294 294 294 295 295 295 295 295 295 295 295 295 295 296 297 298 299 299 299 299 299 299 299 299 300 301 301 301 301 302 302 302 302 302 302 301 301 301 300 299 298 297 297 297 297 297 296 296 296 296 296 296 296 296 296 296 296 296 296 296 296 296 296 295
296 296 296 296 296 295 295 295 295 295 295 295 294 294 293 293 293 293 293 294 294 294 295 295 295 295 295 296 296 296 295 295 296 297 298 298 299 299 299 298 298 298 297 297 299 300 300 300 301 301 301 301 301 301 301 300 300 300 299 297 297 297 297 297 297 297 296 296 296 296 295 295 296 296 296 296 296 296 296 296 296 295 295 295 294
296 296 295 295 295 295 294 294 294 295 294 294 294 293 293 293 293 293 293 294 294 295 295 295 295 295 295 296 297 297 297 297 297 298 299 299 299 299 298 298 298 297 296 296 297 299 299 300 300 300 300 300 299 299 298 298 297 297 296 296 296 297 297 297 296 296 296 296 296 296 295 296 296 296 296 296 296 296 295 295 295 295 294 294 294
295 295 295 295 295 295 294 294 294 294 294 294 294 293 293 293 293 293 294 294 294 295 295 295 295 295 295 295 296 297 298 298 298 298 298 298 298 298 298 298 297 297 296 296 296 297 298 298 298 297 297 297 297 296 296 296 296 296 296 296 296 296 296 296 296 296 295 296 296 296 296 296 296 296 296 296 295 295 294 294 294 294 294 293 293
295 295 296 296 296 295 295 294 294 294 294 294 293 293 293 293 293 293 294 295 295 295 295 295 295 295 295 295 295 296 297 297 298 298 298 298 298 298 298 297 297 296 296 296 296 296 296 296 296 296 296 296 296 296 296 296 296 296 296 296 296 296 296 296 296 295 295 296 296 296 296 296 296 295 295 295 295 294 294 294 294 294 293 293 293
296 296 296 296 296 295 295 294 294 294 294 294 293 293 293 293 293 293 294 295 295 295 295 295 294 294 295 295 295 295 295 296 297 297 297 298 298 297 297 296 296 296 296 295 295 295 295 295 295 295 295 295 295 295 295 295 295 295 295 296 296 296 296 295 296 296 296 296 296 296 295 295 295 294 294 294 294 294 293 293 293 293 293 292 292
296 296 296 295 295 295 295 295 294 294 294 294 294 294 293 293 293 293 293 294 295 295 295 294 294 294 295 295 295 295 295 295 295 296 296 297 297 297 296 296 295 295 294 293 293 293 293 293 293 294 294 294 294 294 294 295 295 295 295 295 295 295 295 295 295 296 296 296 295 295 294 294 294 294 294 294 293 293 293 292 292 292 292 292 291
296 295 295 295 295 294 294 294 294 294 294 294 294 294 294 293 293 293 293 294 295 295 295 294 294 294 295 295 295 295 295 295 295 295 295 296 296 295 294 294 293 293 292 292 292 292 292 292 293 293 294 294 294 294 294 294 294 294 294 295 295 295 295 295 295 295 295 294 294 294 294 293 293 293 293 293 293 293 292 292 292 291 291 291 291
295 295 295 295 295 294 294 294 294 294 294 294 294 294 294 294 294 293 293 293 294 295 294 294 294 294 294 295 295 295 295 294 294 294 294 294 293 293 292 292 292 292 292 292 292 292 292 292 292 293 294 294 293 293 294 294 294 294 294 294 294 294 294 294 294 294 294 294 293 293 293 293 293 293 293 293 293 292 292 292 291 291 290 290 290
296 295 295 295 295 295 294 294 294 294 294 294 294 294 294 294 294 293 293 293 294 294 294 294 294 294 294 294 294 294 294 293 293 293 293 292 292 292 292 292 292 293 293 293 293 292 292 292 292 293 294 294 294 294 294 294 294 294 294 294 294 294 294 294 294 293 293 294 293 293 293 293 293 293 293 293 292 292 291 291 291 290 290 290 290
296 296 295 295 295 295 294 294 294 294 294 294 294 294 294 294 294 293 293 293 293 294 294 294 294 294 294 294 294 294 293 293 293 293 293 293 293 293 293 292 292 293 293 293 293 292 292 292 292 292 293 293 294 294 294 294 294 294 294 294 294 293 293 293 293 293 293 293 293 293 293 293 292 292 292 292 292 291 291 291 290 290 290 290 289
296 296 296 295 295 295 295 295 295 294 294 294 295 295 295 294 294 293 293 293 293 293 294 294 293 293 294 294 294 294 293 293 293 293 293 293 293 293 293 293 293 293 293 293 292 292 292 292 292 291 292 292 293 293 294 294 294 294 294 294 293 293 293 294 293 293 293 293 293 293 293 292 292 292 291 292 291 291 290 290 290 290 290 290 290
295 296 296 295 295 295 295 295 295 295 294 294 295 296 295 295 294 294 293 294 294 293 293 293 293 293 293 293 293 293 293 293 293 293 293 293 293 293 293 293 292 292 292 292 292 291 291 291 291 291 291 291 291 292 292 293 293 294 294 293 293 293 293 294 293 293 293 293 293 293 292 292 292 291 291 291 291 290 290 290 290 290 290 290 290
295 295 296 296 295 296 296 295 295 294 294 295 296 296 296 296 295 294 293 293 293 293 294 294 293 293 293 293 293 293 293 293 293 293 293 292 292 292 292 292 292 291 291 291 291 291 291 291 291 291 291 290 290 290 290 291 291 292 293 293 293 293 293 293 293 293 293 293 293 292 292 292 291 291 291 290 290 290 290 290 290 290 290 290 290
295 295 295 295 295 295 295 295 295 294 294 295 296 296 296 296 295 295 294 293 293 293 293 294 294 294 293 293 293 293 293 293 293 293 292 292 291 291 291 291 291 290 290 290 290 290 291 291 291 290 290 290 289 288 288 289 289 290 291 292 292 292 293 293 293 293 293 293 292 291 291 291 291 290 290 290 290 290 290 289 289 289 289 289 289
294 294 295 295 295 295 295 295 294 294 295 295 296 296 296 296 295 295 295 294 294 294 294 294 295 295 294 294 293 293 293 293 293 292 292 291 291 291 291 291 290 290 290 290 290 290 290 290 290 290 289 288 288 287 287 287 287 287 288 289 290 291 291 292 292 292 292 292 291 291 290 290 290 290 289 289 289 289 289 288 288 288 288 288 288
292 293 293 294 295 296 295 295 295 295 295 295 295 296 296 295 295 296 295 294 294 294 294 295 295 295 295 295 294 294 293 293 293 293 292 292 292 292 292 292 291 290 290 290 290 289 289 289 289 289 288 287 287 286 286 286 286 286 286 286 287 287 288 289 290 291 291 290 290 290 290 289 289 289 289 288 288 288 288 287 287 287 287 287 287
291 291 292 292 293 294 295 295 295 295 295 295 295 295 295 295 295 295 295 295 295 294 294 295 295 295 295 295 295 295 294 293 293 293 293 292 292 293 292 292 292 291 290 290 290 290 289 289 288 287 287 287 286 286 286 286 286 286 286 286 286 286 286 287 287 288 288 288 288 288 288 288 288 288 287 287 287 287 287 286 286 286 286 287 287
292 292 292 291 291 292 293 294 295 295 295 295 295 294 295 295 295 295 295 295 295 295 294 294 294 295 295 295 295 295 295 294 293 293 293 293 293 292 292 292 292 292 291 291 291 290 290 290 288 287 286 286 286 286 286 286 285 285 286 286 286 286 286 286 286 286 286 287 287 287 287 287 287 286 286 286 286 286 286 286 286 286 286 286 286
293 293 293 292 292 292 292 292 293 294 295 294 294 294 294 294 295 294 295 295 294 294 294 294 294 295 295 295 295 295 295 294 294 293 293 293 293 293 292 292 292 292 292 292 292 291 291 291 290 288 286 286 286 286 286 286 285 285 285 286 286 286 286 286 286 286 286 286 286 286 286 286 286 286 286 286 286 286 286 286 286 286 286 286 286
Wind_Speed
13 12 12 11 11 12 13 11 7 2 1 2 5 7 8 10 13 16 18 19 18 18 18 18 18 18 17 16 17 17 16 16 15 15 15 15 14 14 13 13 13 12 12 12 12 12 12 12 12 12 11 11 11 11 11 10 9 9 10 10 11 12 11 8 5 5 8 8 7 7 6 6 6 5 5 4 3 4 5 5 4 3 3 3 3
13 12 11 10 8 8 10 12 10 5 1 3 8 8 9 11 15 17 18 19 19 18 17 17 17 17 16 17 17 17 16 15 14 15 16 15 13 12 12 12 12 12 12 12 11 11 12 12 12 12 11 11 11 11 11 10 9 9 10 11 12 13 13 10 7 7 8 8 7 7 6 6 6 5 4 4 3 4 5 6 6 5 4 3 3
12 11 10 9 7 6 6 8 8 6 3 2 7 8 9 12 16 18 18 19 19 17 17 17 17 17 17 17 17 16 15 14 14 15 15 14 12 10 10 11 12 12 12 11 11 11 12 12 12 11 11 11 11 11 10 10 9 9 10 11 13 14 14 12 9 7 7 7 7 6 5 5 5 5 4 3 3 4 6 7 7 7 6 5 5
13 10 8 8 7 5 4 5 6 4 3 1 4 7 9 11 15 17 18 18 18 17 17 17 17 17 18 17 17 16 15 15 15 15 14 12 11 9 8 10 11 12 11 10 10 11 11 11 11 11 10 10 11 10 10 9 9 10 10 11 13 14 14 13 11 9 8 7 6 5 5 4 5 5 4 3 2 3 5 8 8 8 8 7 7
14 9 7 6 6 4 4 4 5 4 3 2 4 6 8 10 14 17 18 18 17 15 15 15 16 17 18 16 16 15 15 15 15 15 13 11 10 9 9 11 11 11 10 10 10 10 10 11 11 10 10 10 10 10 9 9 9 10 11 12 12 13 13 13 11 10 8 7 6 6 5 5 5 5 4 3 3 2 3 6 7 8 8 7 7
17 13 9 7 4 3 2 3 3 3 3 3 4 6 7 10 14 18 18 17 15 13 13 14 15 16 15 15 14 14 13 13 13 12 11 10 10 10 11 12 12 10 10 10 10 10 11 11 11 10 10 10 10 9 9 9 8 10 12 12 12 12 12 11 10 9 7 6 6 6 6 6 6 6 5 4 4 3 3 4 5 6 6 6 5
18 18 14 10 6 2 1 1 3 3 2 3 4 5 6 9 14 17 18 16 14 14 15 15 14 14 13 12 11 11 10 10 10 10 9 10 11 12 13 13 12 11 10 10 10 11 11 11 11 10 10 9 9 9 9 9 10 11 12 11 11 10 9 8 7 7 6 6 6 6 6 6 6 7 6 6 6 5 5 4 4 5 5 4 4
18 18 17 13 8 3 0 0 1 3 3 3 4 5 6 9 13 16 17 16 15 16 17 16 15 14 13 11 10 9 9 9 9 9 10 11 13 13 13 13 13 12 11 9 9 11 12 12 11 10 10 10 10 10 10 11 10 10 10 9 9 8 8 8 8 7 7 7 7 7 7 7 7 7 7 7 7 6 5 5 5 6 6 6 6
20 18 17 15 10 5 2 1 1 1 3 4 4 5 7 10 14 16 17 17 16 16 16 16 16 14 12 11 10 10 10 10 10 11 12 13 14 14 14 13 13 13 11 10 10 11 12 12 11 11 11 11 12 12 12 11 10 9 9 8 8 8 8 8 7 7 6 6 7 7 7 8 7 7 7 7 6 6 6 6 7 7 8 9 9
22 21 19 17 12 8 5 4 3 2 1 3 4 5 7 10 13 15 16 17 16 15 16 16 15 13 12 11 10 10 11 12 12 13 13 13 14 14 14 13 13 12 10 9 10 11 12 12 13 13 13 13 13 13 13 12 11 9 9 9 8 8 7 6 5 5 4 4 4 5 5 5 6 6 7 7 7 7 7 7 8 9 10 11 11
24 23 21 19 15 11 9 8 8 7 5 6 5 5 7 7 10 12 13 15 15 15 17 17 15 12 10 9 9 10 13 14 14 13 12 12 13 14 13 13 13 12 10 8 9 11 13 15 16 16 14 13 13 12 11 11 10 9 8 8 7 7 6 6 5 5 6 5 5 5 5 5 6 7 8 9 9 9 9 10 10 10 11 11 11
26 25 23 22 19 16 14 12 11 10 8 9 7 6 6 6 10 12 13 14 14 16 18 16 13 11 10 9 10 13 14 14 13 12 11 11 12 12 12 13 13 12 10 8 10 13 17 19 19 17 15 13 12 10 9 8 7 6 6 6 6 6 6 6 6 7 7 7 8 7 7 8 8 9 9 10 10 10 10 10 11 11 12 12 11
27 27 26 24 23 22 21 18 16 12 10 9 7 5 5 6 10 14 14 13 14 16 15 12 10 9 10 11 12 12 13 13 12 11 10 10 10 10 11 12 13 11 9 9 12 17 20 20 19 17 14 12 10 9 7 6 5 4 3 3 3 3 4 5 6 6 7 7 7 8 8 8 9 10 10 11 10 10 10 10 10 10 11 11 11
27 28 28 27 26 25 25 23 20 17 13 9 6 4 4 5 9 14 15 15 14 13 11 8 8 9 11 12 12 11 12 11 10 10 11 10 10 10 10 12 14 12 10 12 16 19 20 19 17 14 12 10 9 8 7 5 4 3 2 1 1 1 2 3 4 5 6 6 6 7 7 7 8 10 10 9 8 8 8 9 9 10 11 12 12
28 28 28 28 27 26 26 25 22 20 17 13 7 5 4 3 4 6 11 14 13 13 12 9 9 10 11 11 11 11 11 10 10 10 11 11 11 9 10 13 14 13 12 15 17 18 18 16 14 12 11 11 10 9 7 5 4 4 4 5 6 6 5 4 3 4 4 5 5 5 6 6 8 8 8 7 6 7 8 9 10 10 12 12 12
27 28 28 27 26 26 26 26 24 21 18 14 10 7 5 3 3 2 3 7 8 11 14 12 9 9 8 8 9 10 10 10 10 9 10 12 12 11 13 16 16 15 15 17 18 18 17 15 14 13 13 12 10 7 6 5 4 3 4 6 7 7 7 6 5 4 4 4 4 5 5 6 8 8 7 6 6 7 8 9 10 10 10 10 9
25 26 26 27 26 26 25 26 25 21 17 14 11 10 7 5 6 6 4 3 3 6 12 12 9 7 6 7 8 8 8 9 9 9 10 12 11 12 15 18 17 17 18 19 19 19 17 16 14 13 12 10 6 3 2 4 4 4 5 7 8 8 7 6 5 5 5 4 4 5 6 6 7 8 8 7 7 7 7 7 7 7 8 8 8
25 24 24 24 25 25 24 24 25 22 17 13 11 10 9 8 10 9 6 5 5 3 9 9 7 5 4 5 6 6 7 8 9 10 11 11 12 15 18 20 20 21 22 22 21 19 17 16 14 11 8 5 2 3 5 7 7 7 7 9 10 9 7 6 6 6 5 5 4 4 5 5 6 6 6 6 6 5 5 5 6 6 6 6 6
25 24 23 22 22 23 23 23 24 23 19 14 10 9 9 9 9 10 7 4 2 3 7 8 7 6 5 6 6 6 7 10 11 11 12 13 15 16 17 18 17 15 15 17 17 16 14 11 9 7 4 4 4 5 6 8 8 7 8 10 11 9 7 6 6 6 6 5 5 4 4 4 4 4 4 5 5 5 5 6 7 6 5 5 5
23 23 23 22 22 22 22 22 21 21 19 16 11 9 10 11 10 11 11 9 7 9 9 7 6 7 7 8 9 10 11 14 14 14 14 14 14 12 9 9 9 7 8 11 13 13 11 8 7 7 6 6 6 6 6 7 7 7 8 9 8 6 5 5 5 5 5 5 5 4 4 4 4 5 5 6 7 7 7 7 8 7 5 4 3
20 21 22 23 24 23 23 21 19 17 17 16 12 10 11 12 12 13 13 13 14 15 12 7 6 9 9 10 12 13 13 14 14 14 14 13 11 8 5 4 5 6 7 9 9 10 11 10 9 9 7 6 6 5 6 6 6 6 6 5 5 4 4 3 3 3 3 3 3 3 3 4 5 6 6 7 7 7 6 7 7 6 4 2 1
19 20 21 24 25 25 26 25 21 17 14 12 11 12 13 13 14 15 15 16 16 16 13 9 8 9 7 8 10 9 7 8 8 8 8 7 5 5 3 1 3 4 5 6 7 8 9 9 9 7 6 4 3 3 4 4 4 4 2 1 2 2 2 2 2 2 2 2 2 2 3 4 4 5 5 5 5 5 5 5 4 2 3 3 3
17 19 21 24 26 26 27 28 27 22 17 13 11 12 12 11 12 12 12 12 13 13 10 7 5 5 6 6 6 4 2 1 1 1 2 2 1 1 1 1 1 0 1 3 5 6 5 6 6 5 3 2 2 2 2 2 2 1 1 2 2 2 2 2 2 1 1 1 1 2 2 3 3 3 4 4 4 4 3 2 1 2 2 3 3
17 18 21 23 25 26 27 27 28 26 23 20 18 17 16 15 15 15 13 12 11 10 9 5 2 3 4 4 4 4 3 2 2 2 2 2 2 2 2 3 5 6 6 7 7 6 6 6 5 3 2 2 1 1 1 0 0 1 2 3 3 3 2 1 1 0 0 0 1 1 1 2 2 2 2 2 2 2 1 1 1 2 1 2 2
19 20 20 22 23 23 24 25 25 24 24 23 23 23 22 21 22 22 21 20 18 17 15 12 9 7 5 4 3 2 1 1 2 3 4 5 6 7 7 7 8 8 8 8 7 6 6 6 5 4 3 2 1 0 1 1 1 1 2 2 3 2 2 1 1 1 0 0 1 1 1 2 2 2 2 2 2 2 2 2 2 2 2 2 2
22 22 22 22 21 21 21 21 21 21 21 21 21 21 20 19 20 20 20 20 20 20 19 18 17 15 13 11 9 7 4 3 2 1 2 3 3 3 4 4 4 4 5 4 4 5 5 5 4 3 1 1 1 1 0 1 2 2 2 2 2 2 1 1 2 1 1 1 2 3 4 5 5 5 4 4 3 2 1 2 1 1 1 1 2
21 23 23 22 21 21 20 20 19 19 18 18 18 18 17 16 16 17 16 16 15 15 15 16 17 17 17 15 13 11 10 9 8 6 4 2 2 2 2 2 1 1 2 1 0 0 0 1 1 1 1 1 1 2 3 4 4 3 2 2 1 1 2 3 3 3 3 3 4 5 6 6 6 6 6 6 5 4 4 4 3 3 3 4 3
19 20 21 21 21 21 20 20 19 18 18 17 16 17 17 16 16 17 17 16 14 13 13 13 14 16 17 16 15 13 12 12 10 8 6 4 3 1 1 1 2 4 5 5 4 3 3 3 2 1 1 3 5 6 5 4 3 3 2 1 0 2 4 4 5 4 4 5 5 5 6 6 6 6 6 5 4 5 5 5 4 3 4 4 3
19 19 20 20 20 20 19 19 19 18 17 17 17 17 17 17 16 17 17 16 15 13 12 12 13 14 14 15 14 11 10 9 8 5 5 4 3 2 2 2 2 3 4 3 2 2 2 1 2 3 5 6 7 6 5 4 3 3 2 1 1 3 5 5 5 4 4 5 5 5 5 6 6 6 6 5 5 5 5 4 4 4 5 4 3
20 21 20 20 20 20 20 20 19 19 19 18 18 18 17 17 16 16 16 15 14 12 11 10 10 10 10 10 9 7 6 5 4 3 3 4 4 3 3 3 4 4 4 4 3 2 2 2 3 4 6 6 6 6 5 5 4 3 2 2 3 4 5 4 3 3 4 4 4 5 5 6 6 6 6 5 5 5 5 5 6 6 5 5 5
21 21 21 21 21 21 21 21 20 20 20 19 19 19 18 17 17 16 16 14 13 12 11 10 9 7 6 5 5 4 3 3 3 3 4 5 5 5 5 4 4 4 4 4 4 4 3 3 3 5 5 6 6 6 6 5 5 4 4 4 5 5 4 2 1 3 4 4 5 5 6 6 7 6 6 6 7 7 6 7 7 6 5 5 6
20 20 20 21 21 21 21 21 20 20 20 19 18 18 18 18 17 16 15 14 14 13 12 11 10 9 8 6 4 3 2 2 3 4 5 6 6 6 5 4 4 3 2 2 3 3 3 3 4 5 6 6 6 6 6 6 6 6 6 6 5 4 2 1 2 3 4 4 5 6 6 6 7 6 6 7 7 7 7 6 6 6 7 7 8
18 19 19 19 19 19 19 20 19 19 19 19 18 18 19 18 17 15 14 14 13 12 12 12 12 11 10 8 7 6 5 5 6 6 6 6 6 5 4 3 3 3 2 1 2 4 4 5 6 7 7 7 7 7 8 8 8 7 6 5 4 3 3 3 3 3 4 5 6 6 6 6 6 7 7 7 7 7 7 7 7 8 10 11 11
17 17 17 17 17 17 18 18 18 18 18 18 18 19 19 18 16 14 13 13 12 12 12 13 13 12 11 9 8 7 7 7 6 6 5 5 4 3 2 2 2 3 2 1 3 5 6 7 7 8 8 9 9 8 8 7 7 6 5 5 5 5 5 4 4 4 5 6 6 7 7 8 8 8 8 8 8 8 8 9 10 11 12 12 13
15 16 17 17 17 17 17 17 17 17 17 17 18 18 18 17 16 15 14 14 14 13 14 14 14 14 12 10 7 6 7 6 5 4 3 2 2 1 2 3 4 3 2 0 2 5 7 7 7 7 7 7 6 6 6 6 6 6 5 6 6 6 5 5 5 5 6 6 7 7 8 9 9 9 8 8 8 8 9 10 11 12 13 13 12
15 15 16 17 17 17 16 16 16 16 16 16 17 18 18 17 17 16 15 15 15 15 15 15 15 14 13 11 7 3 3 4 3 3 2 1 1 3 4 5 4 3 2 2 3 3 4 5 5 5 5 6 6 6 6 6 5 5 5 5 5 5 5 6 6 6 7 7 7 8 8 8 8 9 8 8 8 9 11 12 12 12 12 11 10
14 14 15 15 16 16 15 15 15 15 15 16 17 18 19 19 19 18 15 15 15 15 15 15 15 14 13 11 9 5 2 2 3 3 3 2 1 3 4 4 4 2 3 4 5 5 4 5 5 6 6 6 5 5 5 5 5 5 5 6 6 6 6 7 7 7 7 8 8 8 8 8 9 9 9 9 10 11 12 12 12 11 10 9 8
13 13 14 14 14 14 14 14 14 14 14 15 17 18 19 20 20 19 16 14 13 14 15 15 15 14 14 13 10 7 4 2 2 3 3 2 2 2 3 4 5 5 6 7 7 6 6 5 5 5 5 4 4 5 5 6 7 7 7 7 7 8 8 8 8 8 8 8 8 8 8 8 9 10 10 11 11 11 11 11 11 10 9 8 7
13 13 13 14 15 15 13 12 12 13 14 15 16 17 18 19 20 20 17 13 12 13 14 14 15 14 14 13 12 10 8 5 4 3 3 3 4 6 8 9 9 8 9 8 8 7 6 5 4 4 4 4 4 5 6 7 8 8 8 8 8 8 8 9 8 8 7 7 8 8 9 9 10 11 11 10 10 10 9 10 9 9 8 6 6
12 13 13 14 16 17 15 13 13 13 13 14 14 14 15 16 18 20 18 14 11 12 13 14 15 15 14 13 13 13 13 12 12 11 10 10 10 10 10 10 9 9 8 8 7 7 6 5 4 3 3 4 5 6 7 7 8 9 9 8 8 8 8 8 8 8 8 9 10 10 10 10 9 9 9 8 8 8 8 8 8 8 7 6 6
9 11 13 13 14 16 16 15 14 14 14 14 13 13 13 13 15 17 17 15 12 11 12 14 16 15 13 12 12 13 13 13 13 13 11 10 10 9 8 8 8 7 7 7 7 7 6 5 5 4 3 3 5 6 7 8 9 9 9 9 9 9 9 10 10 10 10 10 10 10 9 8 7 7 7 7 7 7 7 7 6 6 6 6 5
7 8 11 12 12 14 15 15 14 13 13 13 13 13 12 12 12 14 16 15 13 12 11 13 15 14 12 11 11 11 11 11 10 10 9 8 8 7 6 6 6 6 6 6 6 6 6 5 4 4 4 3 4 5 6 8 9 9 9 9 9 9 9 9 9 9 9 9 8 7 7 6 6 6 6 7 7 7 6 5 5 5 4 5 5
6 6 8 9 10 11 12 13 13 13 12 12 13 14 14 13 11 11 13 15 15 14 13 12 12 12 12 11 10 9 9 8 8 8 7 7 6 6 5 5 4 4 4 4 5 5 5 3 3 3 3 3 3 3 4 6 7 7 7 7 7 8 8 8 8 8 7 7 6 5 4 4 5 5 6 7 7 6 4 4 4 3 3 3 4
6 5 5 7 8 9 10 11 12 11 11 12 14 14 13 13 11 10 10 12 14 15 14 12 11 10 10 10 10 9 8 7 6 6 5 5 5 4 4 4 4 4 5 5 5 4 3 2 1 2 2 2 2 2 3 4 5 5 5 6 7 8 8 8 7 7 7 6 5 4 3 3 4 5 5 5 5 4 3 3 3 2 2 1 2
6 5 5 5 6 7 7 8 9 9 10 12 13 12 11 12 12 11 10 10 11 12 14 13 11 10 8 8 8 8 8 7 6 6 5 5 5 4 4 4 5 5 5 5 4 4 3 1 0 1 1 1 1 1 1 2 2 3 4 5 6 7 8 7 7 6 5 5 4 3 3 3 3 3 4 4 4 4 4 4 3 2 2 1 1
6 5 5 5 5 6 6 6 6 6 8 11 12 10 9 11 12 12 11 10 9 10 11 12 11 10 9 7 7 7 7 7 7 7 6 6 5 5 5 5 6 6 5 4 4 3 2 1 1 1 1 1 1 1 1 2 2 3 4 4 5 6 6 7 6 5 4 4 3 3 3 3 2 3 3 3 4 4 5 4 3 2 1 1 2
6 5 5 4 4 5 6 6 6 6 7 10 10 9 8 9 10 10 10 11 11 10 9 10 11 11 10 8 7 6 6 6 6 7 6 4 4 5 6 7 7 7 6 5 4 4 3 2 1 2 3 3 3 2 2 2 3 4 4 5 6 6 7 7 7 7 6 6 5 4 4 4 4 4 4 4 4 4 4 4 3 1 0 1 2
8 7 5 4 4 4 5 6 6 6 7 8 9 9 9 9 9 9 8 10 12 12 11 10 11 12 12 11 10 8 6 6 6 6 5 4 4 5 6 7 8 8 7 6 5 4 3 3 3 3 4 3 2 1 1 1 2 3 4 5 6 7 8 9 9 9 9 8 7 7 6 6 5 6 6 5 5 5 4 3 2 1 1 2 2
8 8 7 7 6 5 5 6 6 7 8 9 9 10 9 9 9 9 9 9 10 11 11 12 12 13 13 13 13 11 9 7 5 5 5 6 6 6 5 5 6 7 6 6 6 5 5 4 4 4 3 2 1 1 1 1 2 2 3 4 5 7 8 9 10 10 10 10 9 8 8 7 7 7 6 6 5 4 3 2 1 0 1 2 2
9 9 9 9 8 7 7 7 7 7 8 9 10 10 10 9 9 9 9 10 10 11 12 13 13 13 13 14 15 14 11 8 6 5 6 7 7 7 7 6 6 5 6 6 6 6 6 6 6 5 3 2 2 2 2 2 3 3 4 4 5 6 7 8 9 10 10 10 9 8 8 7 7 6 6 5 4 3 2 1 1 1 2 3 3
8 9 9 9 9 9 9 9 8 8 8 9 11 11 10 9 10 9 9 10 11 12 13 13 13 12 12 13 13 12 10 7 6 6 6 6 7 8 8 8 8 7 6 7 7 7 7 6 6 6 4 2 2 3 3 3 4 4 4 5 5 5 6 6 7 8 9 9 8 8 7 7 6 5 4 3 2 1 1 1 1 2 2 3 3
Wind_Direction
2 1 1 8 14 11 4 359 357 1 338 253 224 215 213 214 219 221 215 210 204 196 193 194 195 196 198 200 198 196 194 190 188 191 193 192 190 193 196 194 195 196 196 200 202 202 204 204 205 206 207 205 202 202 198 192 193 193 190 188 179 169 161 152 133 141 158 157 152 154 155 157 158 159 169 185 201 203 193 179 170 168 164 162 162
358 358 360 4 6 4 2 2 359 359 8 174 181 199 218 214 212 213 209 205 201 196 196 196 194 195 196 195 192 190 191 189 185 184 184 183 183 188 194 195 195 194 192 195 197 199 200 201 204 206 206 205 203 201 199 193 193 194 192 188 179 167 158 155 150 148 158 162 152 142 140 146 158 170 183 193 211 216 205 194 185 180 180 183 193
360 359 355 354 358 359 359 360 357 2 7 187 186 204 224 214 206 205 201 197 196 198 200 197 193 191 189 188 187 186 186 183 179 178 177 178 180 186 194 198 197 195 194 195 196 196 199 201 203 204 203 201 198 195 192 190 190 191 189 183 176 168 160 159 156 152 161 167 161 152 147 151 168 186 202 216 231 225 210 203 198 194 195 197 206
6 2 354 349 351 354 353 342 335 346 4 255 212 219 222 211 204 202 198 194 194 200 202 196 192 190 185 184 184 182 181 179 176 177 179 181 185 190 197 197 195 194 193 194 195 196 197 200 201 200 196 192 191 189 185 182 185 187 183 178 174 170 165 162 161 162 167 171 173 173 175 181 192 202 215 232 246 231 214 210 209 208 208 209 212
15 3 352 351 351 341 329 322 315 320 318 264 222 216 216 210 201 198 198 198 200 204 200 195 196 191 183 182 183 180 181 180 177 178 182 186 191 195 194 189 187 186 183 183 188 189 188 191 194 193 190 187 186 185 180 177 182 186 182 176 174 172 169 167 168 171 176 185 193 197 202 212 221 226 231 238 243 236 214 211 213 216 218 218 217
25 16 2 349 343 338 314 272 254 269 278 243 214 207 207 204 198 197 199 201 204 204 196 195 202 194 182 182 184 182 181 181 180 183 187 192 195 190 182 178 175 173 171 172 176 177 177 181 186 187 186 184 183 183 180 178 178 179 175 171 171 172 172 173 177 182 189 204 214 220 225 230 238 243 243 240 235 226 214 212 211 212 215 217 218
27 22 15 2 347 342 28 223 224 227 235 226 213 209 205 202 200 199 200 200 202 202 194 194 198 191 181 182 186 185 186 188 190 194 196 197 191 180 172 172 170 166 165 169 173 174 174 176 178 178 176 174 175 177 175 171 166 166 168 167 169 175 180 185 192 199 207 220 231 242 246 243 244 245 242 241 240 233 226 226 225 222 224 228 232
23 21 18 13 2 340 323 98 217 226 231 232 227 222 215 208 204 202 200 200 201 199 193 190 188 184 183 186 192 198 203 205 203 198 194 190 183 175 172 173 171 169 169 174 177 177 177 176 176 175 171 164 161 159 161 164 164 166 170 172 177 186 195 201 206 212 217 224 233 244 251 250 247 241 238 241 248 251 247 246 250 251 253 256 258
21 21 20 19 17 4 340 27 34 256 233 234 233 229 222 213 207 203 200 200 201 199 192 186 183 183 187 195 210 220 217 207 197 188 185 184 178 173 174 175 175 175 179 183 184 183 181 180 177 173 166 157 151 151 155 158 158 162 169 173 178 184 190 196 201 208 214 222 233 242 249 253 248 241 240 244 254 263 260 257 263 268 270 274 274
22 23 24 27 32 28 19 24 29 34 264 264 255 238 231 216 203 201 199 196 198 196 190 185 182 184 194 210 226 221 199 186 182 179 181 182 179 176 177 180 180 181 185 191 190 186 182 177 168 161 157 153 150 150 152 152 149 153 162 166 167 169 173 178 186 198 214 229 242 251 259 261 254 246 246 250 254 258 258 259 265 270 275 279 280
30 30 30 33 41 42 35 28 23 28 21 345 307 264 251 222 200 203 201 193 193 192 188 184 181 185 203 221 214 189 177 176 175 175 177 181 183 183 184 185 184 183 188 197 194 184 174 164 157 154 153 153 153 153 153 154 155 159 167 171 174 177 184 192 201 212 220 227 237 246 254 258 255 250 250 252 253 253 255 256 259 265 273 278 280
37 36 35 35 40 42 38 31 22 17 7 348 330 298 271 226 198 203 204 195 191 191 188 183 178 187 205 205 184 173 174 177 176 174 179 183 184 186 189 189 186 185 190 199 190 175 165 160 156 155 156 156 155 155 155 158 162 170 179 184 190 196 201 209 217 222 226 230 238 243 246 252 257 259 259 259 258 257 256 258 262 269 277 281 285
40 40 39 38 41 42 38 35 29 17 357 338 329 312 283 235 203 203 205 198 190 185 181 177 177 188 194 184 176 175 177 180 182 183 187 190 186 186 192 192 189 187 187 182 171 162 159 159 158 157 159 159 158 155 154 155 155 161 170 178 193 206 214 221 226 230 233 237 243 247 250 254 260 265 267 266 266 265 265 269 273 278 282 286 289
40 41 40 39 41 42 39 36 32 25 11 351 330 314 293 246 210 200 194 189 184 175 164 161 170 177 178 176 175 177 180 185 189 191 197 199 193 193 199 196 189 181 169 160 158 157 159 161 160 159 156 153 150 145 138 131 120 107 84 28 347 314 282 262 253 249 247 244 246 250 254 256 259 263 263 261 264 270 273 279 284 287 288 289 287
37 37 37 37 38 38 36 32 30 28 22 10 353 339 320 271 235 203 182 178 177 163 144 144 165 172 174 180 182 182 188 194 194 199 206 203 196 196 196 190 184 175 163 158 158 160 162 162 158 153 145 136 132 125 112 98 79 52 29 11 358 347 335 315 295 280 269 262 260 260 260 262 265 267 265 258 260 269 275 281 284 284 286 286 285
37 34 32 31 30 31 30 27 26 27 25 19 16 9 350 326 330 329 182 175 176 165 152 150 168 176 171 180 187 189 198 206 205 207 208 200 194 192 188 185 184 179 170 166 166 167 166 161 152 145 140 135 130 118 99 80 59 33 16 5 353 341 330 318 306 295 284 277 272 265 263 265 270 277 284 282 274 272 275 278 279 279 281 284 286
37 34 31 28 26 26 26 24 24 27 28 29 37 44 44 58 66 59 56 47 65 158 165 163 173 183 171 171 179 184 199 215 219 212 200 193 192 192 190 189 189 184 178 175 174 173 168 159 150 145 146 147 144 121 57 22 8 354 345 342 334 322 309 298 291 286 285 286 280 272 274 278 281 286 292 293 287 281 278 278 278 278 281 283 284
33 34 33 29 26 26 27 25 25 30 35 37 44 61 70 79 83 80 65 25 27 140 175 176 178 182 174 172 177 181 194 207 214 207 194 187 190 194 195 195 193 189 185 181 177 171 163 154 152 156 164 181 228 310 327 328 327 327 327 321 311 299 285 277 275 279 286 289 280 275 279 283 285 289 291 293 292 287 281 275 272 275 278 275 272
33 34 34 31 28 28 29 28 28 32 38 39 40 56 70 79 89 94 95 71 43 146 167 174 180 186 196 193 188 189 191 190 191 189 183 182 185 184 184 184 181 173 170 168 164 159 157 155 161 178 210 251 276 299 312 311 305 300 298 297 292 284 274 266 267 274 280 278 270 268 271 272 276 281 287 293 292 283 273 267 265 267 270 267 266
39 38 38 36 33 31 31 31 33 36 40 41 41 55 74 87 99 103 103 106 118 130 136 149 163 164 168 171 170 175 177 171 169 171 174 182 186 182 175 177 174 159 159 167 167 169 177 186 197 213 239 262 271 279 285 282 278 278 283 284 280 269 258 254 257 265 270 271 271 273 275 275 272 272 275 276 274 270 263 259 260 261 263 268 273
43 43 43 44 42 40 40 39 38 42 47 50 54 70 89 102 110 111 110 116 122 120 119 125 135 134 134 138 143 151 153 149 152 159 165 174 185 191 196 194 189 190 189 186 190 200 209 214 219 228 243 257 263 269 272 273 276 279 279 274 259 244 235 232 238 248 259 269 274 272 273 272 268 270 272 270 269 266 256 255 265 269 259 240 169
44 46 48 50 49 50 51 51 49 48 52 60 75 89 97 101 105 108 110 114 115 115 117 124 119 109 98 101 115 129 137 136 142 152 157 165 186 206 216 177 166 187 194 195 206 216 218 218 222 230 238 245 258 278 285 284 282 274 255 211 200 204 205 207 215 234 253 265 268 265 268 271 271 274 274 269 267 263 256 263 276 264 231 233 235
46 48 51 53 54 54 56 57 58 56 56 62 75 83 81 76 78 85 92 98 102 104 106 100 79 56 40 44 56 62 64 76 70 117 146 161 193 200 158 90 93 139 233 222 217 215 219 227 229 230 236 247 271 290 291 284 273 239 133 133 151 165 178 192 196 216 235 234 250 260 260 264 267 267 262 258 253 251 257 273 258 208 229 269 286
51 51 52 53 55 57 58 60 62 62 62 64 67 68 66 63 63 63 63 67 74 81 84 78 25 336 329 333 346 359 359 328 301 281 246 242 248 241 252 274 273 269 269 263 254 248 244 237 224 209 209 217 230 272 296 303 117 115 117 126 128 124 127 132 117 94 184 205 231 245 236 234 237 230 228 225 215 219 217 180 183 201 239 282 311
55 55 53 54 56 58 60 62 64 65 66 67 67 66 64 65 67 66 65 66 66 66 67 69 71 74 73 65 53 39 337 259 229 220 229 240 243 243 248 250 241 233 231 232 228 218 207 198 191 189 194 197 187 56 32 70 110 122 125 126 122 119 115 85 57 30 317 256 192 184 158 146 144 143 149 150 147 159 182 187 203 243 262 280 315
59 59 58 57 58 59 60 61 62 64 66 66 65 61 56 56 59 61 61 62 62 61 59 55 53 55 58 60 61 59 58 60 73 160 216 223 227 238 246 236 212 196 191 189 189 188 185 181 181 186 180 125 65 62 142 197 190 184 164 145 140 133 106 56 36 25 28 87 114 121 120 117 112 109 111 111 111 124 167 187 222 289 320 20 31
58 60 60 60 60 61 61 61 60 61 61 62 63 61 55 50 50 53 56 54 51 52 53 50 47 45 42 42 44 46 51 55 51 43 37 39 25 356 342 348 17 60 88 96 129 168 63 38 23 23 44 68 139 194 203 196 184 175 162 148 138 63 34 26 24 34 63 97 113 117 114 108 100 97 100 97 88 82 90 97 83 59 67 73 59
59 60 61 61 61 62 62 62 60 60 59 58 60 61 58 53 49 51 56 58 54 49 47 47 50 49 44 39 36 37 44 52 50 39 30 34 41 26 360 3 21 39 44 33 16 8 8 360 349 355 160 178 188 193 194 189 180 176 165 152 90 10 8 10 17 37 76 101 109 107 103 102 100 97 99 100 98 93 93 96 95 80 75 69 40
63 63 62 61 61 61 62 62 60 60 59 57 56 57 57 55 54 54 56 57 57 55 52 49 51 53 50 44 37 35 43 55 57 45 32 39 46 42 44 55 65 74 76 63 36 25 35 92 158 166 176 187 196 201 203 202 194 189 189 208 326 345 349 356 11 40 78 89 91 93 98 103 106 108 113 118 121 119 108 100 93 79 69 62 45
63 63 61 60 60 59 59 60 60 60 61 59 58 58 58 57 57 57 56 54 52 51 51 52 52 54 55 53 46 38 40 53 66 67 61 62 64 62 69 86 104 116 124 132 140 126 110 133 167 182 188 195 205 211 210 206 201 204 222 261 305 324 331 345 11 57 82 84 90 98 105 114 120 123 126 125 119 114 96 77 75 74 68 65 60
62 61 61 60 58 57 56 57 57 58 60 60 60 60 59 57 56 54 51 49 46 43 42 43 44 44 48 56 58 51 40 38 46 61 75 84 88 91 96 102 107 116 128 141 149 151 151 166 191 200 200 203 210 212 207 203 207 222 247 272 291 301 306 326 53 91 89 88 100 109 118 131 137 134 125 113 105 98 84 76 78 77 66 59 59
62 61 60 58 55 54 55 55 56 57 58 58 57 55 53 51 50 49 46 43 41 39 38 39 41 43 44 48 56 64 64 64 71 83 94 97 93 88 85 80 71 66 78 138 160 164 173 190 204 209 209 208 209 210 211 218 230 246 260 268 271 266 244 177 127 110 97 96 105 112 121 134 141 136 121 107 100 97 92 89 82 70 64 66 70
65 63 60 56 53 53 54 55 56 57 56 53 49 46 44 42 41 41 42 44 44 43 41 39 41 44 48 54 63 72 81 92 101 108 111 110 106 98 87 69 46 24 356 261 204 195 199 205 209 211 211 213 218 226 232 238 244 247 247 242 228 208 188 168 139 118 107 104 104 105 110 120 129 130 121 111 106 104 98 88 78 75 81 83 81
66 63 59 55 53 53 54 55 55 55 54 49 44 41 40 39 37 37 40 45 49 48 43 38 38 40 45 55 71 83 87 92 101 110 114 114 115 112 83 29 9 359 344 272 214 210 213 217 219 222 225 228 230 231 231 228 224 216 205 195 187 180 174 158 138 120 112 109 106 103 103 107 115 120 118 111 106 99 89 84 86 91 94 90 81
62 61 58 55 54 54 54 56 56 55 53 50 46 43 41 39 39 40 41 44 47 47 41 35 33 33 34 39 56 86 99 98 97 104 113 117 104 54 7 355 356 1 6 28 194 206 213 217 219 219 216 210 204 197 190 184 180 175 172 173 172 168 159 144 129 120 116 115 111 105 101 101 104 109 109 105 101 96 92 94 96 95 92 86 78
60 60 57 56 55 55 56 56 56 55 54 52 49 45 42 41 41 44 46 47 47 44 39 33 29 26 23 19 19 41 115 135 136 138 152 163 19 360 353 359 12 23 43 90 125 154 176 182 179 173 164 158 156 157 157 158 158 161 164 160 153 147 142 134 124 117 113 110 107 102 100 101 102 103 102 100 99 99 99 97 93 88 86 83 79
62 59 56 54 54 53 54 56 56 55 54 53 50 46 43 40 38 39 45 50 48 43 37 32 27 21 15 9 3 355 329 220 207 211 221 238 322 344 352 12 34 56 94 108 110 112 118 125 127 127 130 133 136 139 142 143 143 142 138 131 126 124 123 121 115 110 107 103 101 101 103 105 104 103 104 103 101 98 94 90 86 84 83 82 78
60 57 54 52 50 49 51 55 56 55 53 50 47 45 43 39 35 32 35 44 46 42 37 31 24 18 14 11 10 9 3 313 263 261 263 274 312 360 46 74 87 98 100 97 94 92 92 95 101 108 115 118 120 121 122 124 124 118 111 110 112 112 111 110 107 105 104 104 107 110 110 107 104 102 102 100 97 93 87 82 82 86 88 86 82
55 53 52 50 47 46 50 57 58 55 51 48 46 42 39 37 33 29 30 37 44 41 33 26 21 17 15 19 28 38 44 48 52 54 59 68 75 86 96 100 101 99 94 88 83 79 76 75 79 90 100 104 107 112 115 118 117 112 107 109 112 112 111 110 107 108 113 117 119 118 114 109 106 102 98 96 94 91 85 81 84 92 95 90 82
48 46 47 48 45 46 52 61 64 60 54 49 46 43 38 35 32 29 28 33 41 39 32 26 22 19 19 27 42 54 61 65 68 71 74 79 86 93 98 98 95 90 84 77 72 68 65 65 68 78 97 108 109 110 113 116 118 116 113 113 115 115 114 114 116 122 127 127 124 121 118 114 109 102 98 98 99 96 91 85 86 91 92 88 80
44 40 43 46 45 46 52 59 62 60 54 47 43 40 34 32 32 31 30 32 37 37 33 28 25 23 26 36 50 63 68 68 66 66 69 74 79 82 81 78 76 73 68 62 57 56 59 65 69 75 95 119 122 119 118 118 120 121 119 119 119 120 121 123 126 129 130 129 126 123 120 116 112 106 105 107 106 103 99 94 90 91 90 86 81
53 44 40 41 44 45 47 50 51 49 46 41 37 32 26 25 28 31 32 35 38 37 33 27 23 24 33 44 52 61 66 64 61 59 59 60 61 59 57 55 53 51 48 43 39 39 44 56 68 76 88 108 124 131 132 131 130 129 129 131 133 133 133 132 132 132 131 128 123 119 114 110 106 108 113 118 118 117 115 110 106 107 102 86 76
71 61 44 41 42 41 40 42 42 40 36 31 26 22 20 19 22 26 32 37 39 37 35 31 25 25 34 43 46 49 53 54 53 51 48 45 44 41 37 33 28 23 19 14 13 16 23 37 64 84 91 97 107 124 136 140 140 140 147 156 159 155 151 147 141 137 136 132 124 117 116 117 115 113 118 124 128 132 134 128 124 128 122 91 69
74 78 62 47 40 37 36 37 36 35 30 21 15 12 13 14 15 17 24 32 36 34 32 32 31 27 28 30 32 32 33 31 30 28 26 24 23 22 18 11 2 352 347 344 344 348 356 9 71 117 117 114 117 126 134 138 141 151 170 182 183 176 170 165 157 150 148 148 145 136 132 133 130 125 126 133 139 146 154 158 157 158 151 118 66
71 81 75 55 40 33 30 26 25 27 25 17 14 13 13 11 11 10 13 23 33 31 25 23 26 28 24 19 17 17 16 13 8 2 355 350 348 346 343 339 336 334 334 337 339 343 347 352 56 138 133 134 145 152 150 153 156 163 177 189 193 189 185 182 178 172 167 167 169 161 149 147 147 146 150 157 161 168 181 190 187 175 162 130 54
69 76 76 64 44 29 19 12 12 15 12 9 12 16 15 10 8 9 11 16 21 23 20 16 13 14 16 14 9 3 360 359 356 351 348 348 352 355 352 345 339 335 333 337 345 353 358 355 339 321 323 310 295 284 255 234 225 213 206 204 201 197 195 195 197 200 201 202 206 197 180 177 186 188 187 190 190 194 205 213 210 201 184 79 37
57 62 64 56 35 23 18 15 14 11 2 359 1 6 10 8 5 7 13 12 5 2 5 4 358 355 357 359 356 350 345 341 338 338 340 352 8 12 9 5 359 352 347 344 346 348 350 348 334 318 312 305 293 278 259 247 240 236 234 231 228 226 223 220 221 226 229 230 229 226 216 213 219 221 219 218 217 220 229 235 238 251 342 53 49
42 41 38 29 20 15 10 7 5 360 350 346 345 347 351 354 352 351 357 360 356 352 350 347 342 341 342 342 340 335 330 326 325 322 322 329 340 348 354 360 2 2 1 360 359 355 351 345 335 325 319 308 285 247 231 240 244 244 247 248 245 242 238 235 234 234 234 232 232 231 228 226 228 231 233 232 227 226 231 237 249 288 41 81 77
38 33 25 16 6 356 347 345 346 343 337 334 334 333 331 332 336 336 333 334 339 341 339 334 330 328 328 330 330 327 322 319 318 312 303 301 307 313 319 333 348 357 2 4 3 3 2 359 350 336 323 305 262 227 228 249 262 264 267 268 263 253 245 238 234 233 231 230 229 229 229 230 233 235 237 237 233 231 232 228 222 191 108 112 102
32 28 21 13 5 353 339 330 328 330 330 330 333 332 327 324 327 331 332 332 334 334 331 327 323 320 320 321 322 320 315 309 307 306 298 294 296 300 303 308 317 331 343 348 348 346 349 357 3 356 336 297 249 240 257 272 281 282 278 277 274 265 251 239 231 227 226 225 224 224 225 227 230 231 232 231 228 227 228 202 140 131 131 127 120
19 16 13 9 5 359 349 336 326 321 320 323 328 333 334 329 327 330 336 342 341 336 332 329 327 324 322 318 315 313 310 302 299 303 305 302 298 297 302 307 307 306 316 332 339 336 331 334 348 357 348 306 263 262 275 283 288 287 281 278 275 266 253 238 227 220 218 217 218 219 219 218 218 218 215 210 203 188 165 134 119 125 137 138 131